User: anonymous   Login
Location: Unspecified
(0.0000°N, 0.0000°E)
Time: 05:15:23
(UTC+00:00)
Language:

USA 264 - Orbit

View from above orbital plane
View from above orbital plane
View from above satellite
View from above satellite

Ground track
Ground track

The orbit data is extracted from the following two-line orbital elements,

1 40964U 15058A   18135.86131549 0.00000000  00000-0  00000-0 0    00
2 40964  63.4376  34.3118 0048000 172.3480 187.6520 13.40754620    02
Epoch (UTC): 15 May 2018 20:40:17
Eccentricity: 0.0048000
inclination: 63.4376°
perigee height: 1070 km
apogee height: 1142 km
right ascension of ascending node: 34.3118°
argument of perigee: 172.3480°
revolutions per day: 13.40754620
mean anomaly at epoch: 187.6520°
orbit number at epoch: 0

The dashed part of the orbit path shows where the satellite is in the earth's shadow,  

DLR